Flag for Canada Weather past 2 weeks in Kenora, Ontario, Canada

Now
43 °F

Clear.


Feels Like: 40 °F
Forecast: 35 / 51 °F
Wind: 5 mph from West

Location: Kenora

Current Time: Oct 25, 2014 at 11:05:37 PM

Latest Report: Oct 25, 2014 at 10:00 PM


Visibility: 15 mi

Pressure: 29.97 "Hg

Humidity: 57%

Dew point: 28 °F

Location of KenoraLocation

Historic Weather in Kenora — Graph

°F

Kenora temperature yesterday

Maximum temperature yesterday: 63 °F (at 6:00 PM)
Minimum temperature yesterday: 46 °F (at 7:00 AM)
Average temperature yesterday: 53 °F

Past Weeks' High & Low Weather Summary

 TemperatureHumidityPressure
High64 °F (Oct 16, 4:00 PM)100% (Oct 12, 10:00 PM)30.29 "Hg (Oct 12, 10:00 PM)
Low28 °F (Oct 18, 5:00 AM)34% (Oct 16, 4:00 PM)29.51 "Hg (Oct 16, 3:00 PM)
Average48 °F71%29.90 "Hg
* Reported Oct 10 9:00 PM — Oct 25 9:00 PM, Kenora, Weather by CustomWeather, © 2014

Note: Actual official high and low records may vary slightly from our data, if they occured in-between our weather recording intervals... More about our weather records

Advertising

Kenora weather history for previous 24 hours

 ConditionsComfort  
Time TempWeatherWind HumidityBarometerVisibility
9:00 PM
Oct 25
45 °FClear.5 mph53%29.97 "Hg15 mi
8:00 PM46 °FClear.8 mph50%29.97 "Hg15 mi
7:00 PM48 °FPassing clouds.10 mph43%29.97 "Hg15 mi
6:00 PM50 °FPassing clouds.10 mph43%29.96 "Hg15 mi
5:00 PM50 °FPassing clouds.14 mph43%29.95 "Hg15 mi
4:00 PM52 °FPassing clouds.14 mph41%29.93 "Hg15 mi
3:00 PM50 °FPassing clouds.22 mph43%29.93 "Hg15 mi
2:00 PM50 °FPassing clouds.18 mph40%29.92 "Hg15 mi
1:00 PM50 °FPassing clouds.15 mph43%29.90 "Hg15 mi
12:00 PM48 °FPassing clouds.18 mph46%29.90 "Hg15 mi
11:00 AM46 °FScattered clouds.17 mph53%29.89 "Hg15 mi
10:00 AM45 °FPassing clouds.13 mph61%29.89 "Hg15 mi
9:00 AM43 °FPassing clouds.16 mph66%29.88 "Hg15 mi
8:00 AM41 °FClear.9 mph70%29.86 "Hg15 mi
7:00 AM43 °FClear.9 mph66%29.84 "Hg15 mi
6:00 AM43 °FClear.12 mph66%29.83 "Hg15 mi
5:00 AM45 °FPassing clouds.15 mph61%29.81 "Hg15 mi
4:00 AM46 °FPassing clouds.17 mph62%29.80 "Hg15 mi
3:00 AM48 °FOvercast.15 mph54%29.79 "Hg15 mi
2:00 AM48 °FPassing clouds.22 mph58%29.78 "Hg15 mi
1:00 AM50 °FPassing clouds.15 mph54%29.75 "Hg15 mi
12:00 AM52 °FClear.14 mph50%29.72 "Hg15 mi
11:00 PM
Oct 24
54 °FClear.15 mph47%29.70 "Hg15 mi
Weather by CustomWeather, © 2014

See weather overviewHow to use our weather pages